Probability
0 0 0 0 0 0 0 0 0 0 0 0 0 0 0 0 0 0 0 0 0 0 0 0 0 0 1 2 3 2 1 0 0 0 1 2 2 1 0 0 0 0 0 0
0 0 0 0 0 0 0 0 0 0 0 0 0 0 0 0 0 0 0 0 0 0 0 0 0 0 0 1 2 2 1 0 0 0 0 1 2 1 0 0 0 0 0 0
0 0 0 0 0 0 0 0 0 0 0 0 0 0 0 0 0 0 0 0 0 0 0 0 0 0 0 1 2 1 0 0 0 0 0 1 2 1 0 0 0 0 0 0
0 0 0 0 0 0 0 0 0 0 0 0 0 0 0 0 0 0 0 0 0 0 0 0 0 0 0 1 2 1 0 0 0 0 0 1 2 1 0 0 0 0 0 0
0 0 0 0 0 0 0 0 0 0 0 0 0 0 0 0 0 0 0 0 0 0 0 0 0 0 0 1 1 1 0 0 0 0 0 1 1 1 0 0 0 0 0 0
0 0 0 0 0 0 0 0 0 0 0 0 0 0 0 0 0 0 0 0 0 0 0 0 0 0 0 0 0 0 0 0 0 0 0 0 1 1 0 0 0 0 0 0
0 0 0 0 0 0 0 0 0 0 0 0 0 0 0 0 0 0 0 0 0 0 0 0 0 0 0 0 0 0 0 0 0 0 0 0 0 1 0 0 0 0 0 0
0 0 0 0 0 0 0 0 0 0 0 0 0 0 0 0 0 0 0 0 0 0 0 0 0 0 0 0 0 0 0 0 0 0 0 0 0 0 0 0 0 0 0 0
0 0 0 0 0 0 0 0 0 0 0 0 0 0 0 0 0 0 0 0 0 0 0 0 0 0 0 0 0 0 0 0 0 0 0 0 0 0 0 0 0 0 0 0
0 0 0 0 0 0 0 0 0 0 0 0 0 0 0 0 0 0 0 0 0 0 0 0 0 0 0 0 0 0 0 0 0 0 0 0 0 0 0 0 0 0 0 0
0 0 0 0 0 0 0 0 0 0 0 0 0 0 0 0 0 0 0 0 0 0 0 0 0 0 0 0 0 0 0 0 0 0 0 0 0 0 0 0 0 0 0 0
0 0 0 0 0 0 0 0 0 0 0 0 0 0 0 0 0 0 0 0 0 0 0 0 0 0 0 0 0 0 0 0 0 0 0 0 0 0 0 0 0 0 0 0
0 0 0 0 0 0 0 0 0 0 0 0 0 0 0 0 0 0 0 0 0 0 0 0 0 0 0 0 0 0 0 0 0 0 0 0 0 0 0 0 0 0 0 0
0 0 0 0 0 0 0 0 0 0 0 0 0 0 0 0 0 0 0 0 0 0 0 0 0 0 0 0 0 0 0 0 0 0 0 0 0 0 0 0 0 0 0 0
0 0 0 0 0 0 0 0 0 0 0 0 0 0 0 0 0 0 0 0 0 0 0 0 0 0 0 0 0 0 0 0 0 0 0 0 0 0 0 0 0 0 0 0
0 0 0 0 0 0 0 0 0 0 0 0 0 0 0 0 0 0 0 0 0 0 0 0 0 0 0 0 0 0 0 0 0 0 0 0 0 0 0 0 0 0 0 0
0 0 0 0 0 0 0 0 0 0 0 0 0 0 0 0 0 0 0 0 0 0 0 0 0 0 0 0 0 0 0 0 0 0 0 0 0 0 0 0 0 0 0 0
0 0 0 0 0 0 0 0 0 0 0 0 0 0 0 0 0 0 0 0 0 0 0 0 0 0 0 0 0 0 0 0 0 0 0 0 0 0 0 0 0 0 0 0
0 0 0 0 0 0 0 0 0 0 0 0 0 0 0 0 0 0 0 0 0 0 0 0 0 0 0 0 0 0 0 0 0 0 0 0 0 0 0 0 0 0 0 0
0 0 0 0 0 0 0 0 0 0 0 0 0 0 0 0 0 0 0 0 0 0 0 0 0 0 0 0 0 0 0 0 0 0 0 0 0 0 0 0 0 0 0 0
0 0 0 0 0 0 0 0 0 0 0 0 0 0 0 0 0 0 0 0 0 0 0 0 0 0 0 0 0 0 0 0 0 0 0 0 0 0 0 0 0 0 0 0
0 0 0 0 0 0 0 0 0 0 0 0 0 0 0 0 0 0 0 0 0 0 0 0 0 0 0 0 0 0 0 0 0 0 0 0 0 0 0 0 0 0 0 1
0 0 0 0 0 0 0 0 0 0 0 0 0 0 0 0 0 0 0 0 0 0 0 0 0 0 0 0 0 0 0 0 0 0 0 0 0 0 0 0 0 0 1 2
0 0 0 0 0 0 0 0 0 0 0 0 0 0 0 0 0 0 0 0 0 0 0 0 0 0 0 0 0 0 0 0 0 0 0 0 0 0 0 0 0 0 1 2
0 0 0 0 0 0 0 0 0 0 0 0 0 0 0 0 0 0 0 0 0 0 0 0 0 0 0 0 0 0 0 0 0 0 0 0 0 0 0 0 0 0 1 2
0 0 0 0 0 0 0 0 0 0 0 0 0 0 0 0 0 0 0 0 0 0 0 0 0 0 0 0 0 0 0 0 0 0 0 0 0 0 0 0 0 0 1 1
Wind_Speed
2 2 3 3 4 5 5 6 6 5 2 3 6 5 4 3 2 2 2 2 2 3 3 3 3 4 4 3 3 3 3 2 2 1 1 1 1 1 1 1 2 2 2 3
2 4 3 3 3 6 7 7 6 4 2 3 5 6 3 3 3 2 2 2 2 3 3 3 3 3 3 2 2 2 2 1 1 1 1 0 1 1 1 1 1 2 2 3
4 1 2 4 5 6 7 6 5 4 4 4 4 5 5 4 3 2 2 2 2 2 2 2 2 3 3 2 2 1 1 1 1 1 1 1 1 1 1 0 0 1 2 3
3 2 2 3 3 4 6 3 5 4 3 4 4 5 5 6 4 3 2 2 1 2 2 2 3 3 3 3 2 1 1 1 1 0 0 1 1 1 1 1 1 1 2 3
2 1 3 3 3 3 4 4 6 5 5 5 5 5 4 6 4 3 3 3 2 3 3 2 3 3 3 2 2 1 1 1 1 1 1 1 1 1 1 1 2 2 2 2
3 1 1 2 2 3 4 4 5 4 3 7 8 7 3 3 3 3 3 3 3 3 3 3 2 2 2 3 2 2 2 2 2 2 2 1 2 2 2 2 2 2 2 2
3 3 2 0 2 1 1 1 1 2 4 6 3 4 2 2 4 4 4 3 3 3 3 3 3 3 3 3 3 3 2 2 2 2 2 2 1 2 3 3 3 2 2 2
3 3 3 1 1 1 3 2 2 3 4 3 2 4 2 4 5 6 5 4 3 3 3 3 3 3 4 4 3 3 2 2 3 3 3 3 2 1 2 2 3 3 3 3
2 2 1 0 0 1 1 2 2 2 4 4 4 2 2 3 4 5 5 4 3 3 3 3 3 3 3 4 4 3 3 2 2 3 3 3 3 2 1 2 2 2 2 2
3 4 2 1 1 2 1 1 1 2 3 5 4 3 2 2 1 2 2 2 2 2 3 3 3 4 3 3 4 3 3 3 3 3 3 3 3 2 2 1 2 2 2 2
2 3 2 1 3 3 2 2 2 3 3 3 4 2 2 3 3 2 2 1 1 2 3 3 3 3 3 4 4 4 3 3 3 3 3 3 3 3 2 1 2 2 2 3
0 1 4 3 0 1 1 2 3 3 4 4 3 4 3 4 4 3 2 2 2 2 2 2 3 3 3 4 4 4 4 4 4 3 3 3 3 3 3 2 2 2 2 2
1 1 3 2 0 1 1 2 2 2 2 4 4 5 2 3 3 3 2 2 2 2 2 3 3 3 3 4 4 4 4 4 4 4 4 3 3 3 3 4 3 2 2 2
0 3 5 6 3 1 4 3 4 4 4 5 6 5 2 1 1 1 1 1 1 2 2 3 3 4 4 4 4 4 5 4 5 4 4 4 4 3 4 3 4 3 3 3
1 3 5 7 7 5 5 6 6 7 7 6 6 5 4 2 1 1 1 1 1 2 3 3 4 4 5 5 5 5 5 5 5 5 5 5 4 4 4 4 4 3 3 4
1 3 3 6 5 4 7 7 7 7 7 8 7 7 2 1 2 1 1 1 1 2 2 3 4 4 5 5 5 5 5 5 5 5 5 5 5 5 5 5 4 4 4 3
2 2 2 4 2 4 7 6 7 5 4 4 7 5 1 1 1 1 1 1 0 1 2 3 3 4 4 5 5 5 5 5 5 4 5 5 5 5 5 5 4 4 4 4
2 2 2 3 2 7 5 1 3 3 2 2 2 1 0 0 0 0 2 1 1 2 2 3 3 4 4 4 5 5 5 5 4 4 5 5 5 5 5 5 5 4 3 3
2 3 2 2 4 6 2 1 1 2 2 1 2 2 1 1 1 1 2 2 1 1 1 2 2 3 4 4 5 4 4 4 4 5 5 5 5 6 5 5 5 4 4 4
0 2 3 3 4 6 2 1 1 2 3 1 1 0 1 1 1 2 1 2 2 2 2 2 3 3 3 4 4 4 4 4 5 6 6 5 5 5 6 6 6 5 4 4
2 2 5 5 5 5 1 1 1 2 4 1 1 0 1 1 2 1 1 1 1 2 2 2 3 3 3 4 4 5 5 5 6 6 6 6 5 5 5 5 5 5 5 4
5 4 4 4 6 6 0 2 3 3 1 1 2 2 1 1 1 1 1 1 2 2 3 3 3 4 4 4 4 5 6 6 6 6 6 6 6 5 5 4 4 4 4 4
3 4 3 4 4 1 3 2 1 1 1 1 2 2 2 1 2 2 2 2 2 2 3 3 3 4 4 4 4 5 6 6 6 6 7 6 6 5 5 4 4 4 3 3
1 0 1 2 2 1 1 1 1 1 1 2 2 1 1 2 2 3 2 2 3 3 3 3 3 4 5 4 5 5 6 6 6 6 7 7 6 5 4 3 3 3 3 3
1 1 1 3 2 1 1 1 0 1 2 2 2 2 1 1 2 2 3 3 3 3 3 3 3 4 5 5 5 6 6 6 6 6 6 6 6 5 4 4 3 4 3 4
2 3 4 4 2 1 1 1 2 1 1 1 2 2 2 2 2 3 3 3 3 3 3 4 4 5 5 5 5 6 5 5 6 6 6 5 5 5 4 4 4 6 7 9
Wind_Direction
190 217 226 234 240 267 279 272 268 276 270 249 237 237 198 181 175 152 147 124 93 80 68 60 57 65 63 57 56 54 47 34 44 52 91 139 152 137 120 122 129 135 140 140
220 232 256 280 270 262 265 270 271 288 287 268 260 256 209 182 172 146 125 117 103 74 57 49 48 57 62 58 56 56 54 37 20 347 339 211 161 155 148 132 138 150 152 155
222 255 257 262 265 261 256 256 269 279 311 275 261 253 207 179 155 139 103 88 84 100 83 51 41 45 46 42 38 25 9 2 1 360 16 55 69 92 75 61 184 186 177 169
239 257 278 262 267 276 263 278 281 267 257 252 211 260 212 179 172 163 138 103 74 78 70 57 43 37 29 17 15 22 11 350 347 10 65 182 176 195 221 199 204 213 193 182
235 239 266 257 270 281 276 296 273 255 244 263 227 243 235 166 192 190 151 111 83 69 77 64 43 34 20 8 4 5 16 354 0 349 304 226 191 208 181 184 187 207 203 183
236 185 260 302 292 262 295 293 265 235 232 248 215 212 237 181 181 139 111 95 78 58 53 57 44 39 26 17 15 13 12 2 354 345 342 308 207 195 189 193 196 209 215 197
227 182 162 295 299 247 293 327 309 237 219 239 192 210 204 95 85 110 123 101 71 64 47 37 28 21 18 14 13 12 4 354 355 351 337 330 269 211 203 197 200 206 219 220
257 231 167 157 195 233 245 223 213 243 255 287 230 225 148 95 74 74 89 96 72 59 50 36 23 20 13 5 8 3 357 353 350 344 333 328 314 246 234 221 215 212 219 223
288 259 108 84 353 238 241 229 242 279 281 265 236 155 144 85 68 66 70 76 63 51 38 26 23 20 10 3 359 354 353 352 344 341 335 322 325 301 278 258 241 228 227 233
319 279 247 210 227 231 241 294 268 235 266 267 259 218 192 161 151 89 69 67 50 37 29 17 16 10 5 2 358 357 359 354 349 343 328 325 322 313 292 265 254 251 245 241
296 274 257 220 208 215 189 218 238 250 246 255 271 262 58 134 143 140 117 78 59 37 21 12 3 3 3 4 4 360 1 354 350 343 336 336 333 330 308 278 265 259 255 240
272 284 261 234 125 9 220 218 201 223 250 238 260 265 76 77 77 86 83 68 67 50 28 20 9 3 6 5 3 360 353 352 345 337 334 336 339 336 327 300 289 277 256 247
47 235 281 260 244 323 253 236 237 247 267 242 238 247 96 66 62 61 60 52 58 54 30 19 10 4 3 2 357 353 349 347 343 337 336 335 336 334 327 320 306 295 281 261
357 223 221 241 264 243 249 247 229 209 229 248 235 248 266 315 16 39 51 49 61 50 24 10 5 0 358 358 355 349 347 346 346 342 338 333 332 328 320 320 319 306 293 274
193 247 251 270 285 274 258 251 227 219 226 234 250 258 268 244 212 170 96 79 76 33 8 0 358 355 351 349 350 348 343 344 344 342 340 335 333 333 330 325 320 310 294 285
213 257 290 277 264 263 272 262 241 239 241 244 261 270 297 33 85 109 112 88 34 356 352 355 352 348 344 341 340 339 338 338 339 338 334 336 338 335 330 322 318 312 303 289
207 210 255 267 292 322 274 246 222 219 225 220 242 248 50 50 28 189 166 146 323 342 349 347 342 337 335 334 333 327 325 329 333 331 330 334 332 328 322 316 317 312 305 301
199 210 230 271 309 249 241 71 148 184 243 224 230 290 337 213 340 85 123 116 8 353 349 343 338 335 334 332 329 322 323 326 329 330 328 328 327 321 319 315 309 305 300 295
210 195 225 238 252 262 251 188 150 174 270 240 222 274 345 56 46 41 61 50 16 342 331 323 328 323 327 328 324 321 324 326 328 326 324 323 320 316 314 311 304 296 291 285
274 195 218 228 242 249 247 38 27 101 267 309 98 279 5 43 277 268 29 18 7 8 1 346 338 333 331 327 327 328 325 326 323 319 317 315 312 306 303 301 299 295 287 283
176 203 219 232 242 258 284 303 88 165 247 350 48 4 52 237 239 289 349 352 2 355 349 347 335 325 324 330 334 329 327 322 319 317 314 311 308 302 296 295 296 295 292 290
185 194 206 209 227 247 104 125 176 215 35 36 33 27 10 347 0 352 342 340 347 343 343 343 332 324 327 336 336 327 323 321 321 317 313 310 307 303 303 299 298 298 297 293
196 198 197 200 215 175 142 155 149 59 44 15 12 358 1 342 324 328 326 325 329 329 328 332 326 322 325 332 333 323 321 324 323 319 314 311 309 304 302 296 294 293 289 287
217 269 227 257 262 212 171 134 44 44 33 7 11 2 352 309 313 317 316 321 323 321 321 328 326 322 323 326 327 322 322 324 321 316 314 313 311 305 299 293 289 288 286 288
255 166 226 253 270 320 291 203 100 46 33 21 15 4 338 320 315 313 307 311 313 317 322 323 318 313 314 321 321 322 324 325 320 315 314 313 313 306 299 295 283 284 271 275
211 200 209 235 238 218 257 41 49 66 10 349 346 341 346 337 313 315 308 310 311 314 320 318 314 312 313 318 317 319 322 322 318 315 317 316 317 312 306 302 304 297 292 296